Weather History for Rodez, France

Change the Weather History Date:

Friday, November 29, 2013

  Actual Average Record
Temperature  
Mean Temperature 29 °F -  
Max Temperature 39 °F - - ()
Min Temperature 19 °F - - ()
Degree Days  
Heating Degree Days 36    
Moisture  
Dew Point 24 °F    
Average Humidity 79    
Maximum Humidity 100    
Minimum Humidity 61    
Precipitation  
Precipitation 0.00 in - - ()
Sea Level Pressure  
Sea Level Pressure 30.34 in    
Wind  
Wind Speed 4 mph ()    
Max Wind Speed 13 mph    
Max Gust Speed -    
Visibility 6.0 miles    
Events      
T = Trace of Precipitation, MM = Missing Value Source: Averaged Metar Reports

Daily Weather History Graph

Daily Weather History Graph

Search for Another Location

Airport:

Trip Planner

Search our weather history database for the weather conditions in past years. The results will help you decide how hot, cold, wet, or windy it might be!

Date:

Astronomy

Nov. 29, 2013 Rise Set
Actual Time 8:03 AM CET 5:12 PM CET
Civil Twilight 7:31 AM CET 5:45 PM CET
Nautical Twilight 6:55 AM CET 6:21 PM CET
Astronomical Twilight 6:20 AM CET 6:56 PM CET
Moon 3:44 AM CET (11/29) 2:55 PM CET (11/29)
Length of Visible Light 10h 14m
Length of Day
9h 08m
Waning Crescent, 16% of the Moon is Illuminated
Nov 29
Waning Crescent
Dec 3
New
Dec 9
First Quarter
Dec 17
Full
Dec 25
Last Quarter

Hourly Weather History & Observations

Time (CET) Temp. Windchill Dew Point Humidity Pressure Visibility Wind Dir Wind Speed Gust Speed Precip Events Conditions
12:00 AM 26.6 °F - 19.4 °F 74% 30.36 in 6.2 mi Calm Calm - N/A   Unknown
12:30 AM 24.8 °F - 17.6 °F 74% 30.36 in 6.2 mi Calm Calm - N/A   Unknown
1:00 AM 24.8 °F - 19.4 °F 80% 30.36 in 6.2 mi Calm Calm - N/A   Unknown
1:30 AM 24.8 °F - 19.4 °F 80% 30.36 in 6.2 mi Calm Calm - N/A   Unknown
2:00 AM 24.8 °F - 17.6 °F 74% 30.36 in 6.2 mi Variable 2.3 mph - N/A   Unknown
2:30 AM 23.0 °F 18.4 °F 15.8 °F 74% 30.36 in 6.2 mi Variable 3.5 mph - N/A   Unknown
3:00 AM 21.2 °F - 15.8 °F 80% 30.36 in 6.2 mi Variable 2.3 mph - N/A   Unknown
3:30 AM 21.2 °F 16.4 °F 17.6 °F 86% 30.36 in 6.2 mi South 3.5 mph - N/A   Unknown
4:00 AM 23.0 °F - 17.6 °F 80% 30.36 in 6.2 mi Calm Calm - N/A   Unknown
4:30 AM 21.2 °F - 15.8 °F 80% 30.36 in 6.2 mi South 2.3 mph - N/A   Unknown
5:00 AM 21.2 °F - 17.6 °F 86% 30.36 in 6.2 mi SSW 2.3 mph - N/A   Unknown
5:30 AM 21.2 °F - 17.6 °F 86% 30.36 in 6.2 mi SSW 2.3 mph - N/A   Unknown
6:00 AM 19.4 °F - 15.8 °F 86% 30.36 in 6.2 mi SSW 2.3 mph - N/A   Unknown
6:30 AM 21.2 °F - 15.8 °F 80% 30.36 in 6.2 mi SE 2.3 mph - N/A   Unknown
7:00 AM 21.2 °F - 15.8 °F 80% 30.36 in 6.2 mi ESE 2.3 mph - N/A   Unknown
7:30 AM 21.2 °F - 17.6 °F 86% 30.36 in 6.2 mi SSE 1.2 mph - N/A   Unknown
8:00 AM 21.2 °F 16.4 °F 15.8 °F 80% 30.36 in 6.2 mi SSE 3.5 mph - N/A   Unknown
8:30 AM 24.8 °F 20.5 °F 17.6 °F 74% 30.36 in 6.2 mi ESE 3.5 mph - N/A   Partly Cloudy
9:00 AM 23.0 °F 18.4 °F 19.4 °F 86% 30.36 in 6.2 mi NNE 3.5 mph - N/A   Unknown
9:30 AM 28.4 °F 24.6 °F 23.0 °F 80% 30.36 in 6.2 mi SW 3.5 mph - N/A   Unknown
10:00 AM 32.0 °F - 26.6 °F 80% 30.36 in 6.2 mi Calm Calm - N/A   Unknown
10:30 AM 32.0 °F 28.7 °F 24.8 °F 75% 30.36 in 6.2 mi NNW 3.5 mph - N/A   Unknown
11:00 AM 33.8 °F 27.0 °F 26.6 °F 75% 30.39 in 6.2 mi NW 8.1 mph - N/A   Unknown
11:30 AM 33.8 °F 26.4 °F 26.6 °F 75% 30.36 in 6.2 mi NW 9.2 mph - N/A   Unknown
12:00 PM 35.6 °F 29.2 °F 24.8 °F 65% 30.36 in 6.2 mi WNW 8.1 mph - N/A   Unknown
12:30 PM 37.4 °F 30.8 °F 26.6 °F 65% 30.36 in 6.2 mi WNW 9.2 mph - N/A   Unknown
1:00 PM 37.4 °F 30.8 °F 26.6 °F 65% 30.33 in 6.2 mi WNW 9.2 mph - N/A   Unknown
1:30 PM 39.2 °F 33.0 °F 26.6 °F 61% 30.33 in 6.2 mi NW 9.2 mph - N/A   Unknown
2:00 PM 39.2 °F 32.5 °F 26.6 °F 61% 30.33 in 6.2 mi WNW 10.4 mph - N/A   Unknown
2:30 PM 39.2 °F 33.6 °F 26.6 °F 61% 30.33 in 6.2 mi WNW 8.1 mph - N/A   Unknown
3:00 PM 39.2 °F 32.5 °F 28.4 °F 65% 30.33 in 6.2 mi WNW 10.4 mph - N/A   Unknown
3:30 PM 39.2 °F 33.0 °F 28.4 °F 65% 30.33 in 6.2 mi WNW 9.2 mph - N/A   Unknown
4:00 PM 37.4 °F 30.8 °F 28.4 °F 70% 30.33 in 6.2 mi WNW 9.2 mph - N/A   Unknown
4:30 PM 35.6 °F 29.9 °F 28.4 °F 75% 30.30 in 6.2 mi West 6.9 mph - N/A   Unknown
5:00 PM 33.8 °F 27.0 °F 26.6 °F 75% 30.30 in 6.2 mi West 8.1 mph - N/A   Unknown
5:30 PM 30.2 °F 22.6 °F 26.6 °F 86% 30.30 in 6.2 mi West 8.1 mph - N/A   Unknown
6:00 PM 30.2 °F 22.6 °F 26.6 °F 86% 30.30 in 6.2 mi West 8.1 mph - N/A   Unknown
6:30 PM 32.0 °F 25.6 °F 30.2 °F 93% 30.30 in 6.2 mi WNW 6.9 mph - N/A   Mostly Cloudy
7:00 PM 33.8 °F 27.7 °F 30.2 °F 87% 30.33 in 6.2 mi West 6.9 mph - N/A   Overcast
7:30 PM 33.8 °F 24.8 °F 30.2 °F 87% 30.33 in 6.2 mi West 12.7 mph - N/A   Overcast
8:00 PM 33.8 °F 27.7 °F 30.2 °F 87% 30.30 in 5.6 mi West 6.9 mph - N/A   Overcast
8:30 PM 35.6 °F 28.0 °F 30.2 °F 81% 30.30 in 6.2 mi West 10.4 mph - N/A   Overcast
9:00 PM 35.6 °F 28.6 °F 30.2 °F 81% 30.30 in 6.2 mi WNW 9.2 mph - N/A   Overcast
9:30 PM 35.6 °F 29.9 °F 30.2 °F 81% 30.30 in 6.2 mi WNW 6.9 mph - N/A   Overcast
10:00 PM 35.6 °F 29.2 °F 32.0 °F 87% 30.30 in 4.3 mi West 8.1 mph - N/A   Overcast
10:30 PM 33.8 °F 28.6 °F 32.0 °F 93% 30.30 in - West 5.8 mph - N/A   Overcast
11:00 PM 33.8 °F 27.7 °F 33.8 °F 100% 30.27 in - West 6.9 mph - N/A   Overcast
11:30 PM 35.6 °F 28.0 °F 33.8 °F 93% 30.27 in 1.1 mi West 10.4 mph - N/A   Overcast